Regional Weather Roundup
Issued by NWS

Home | Current Version | Previous Version | Graphics & Text | Print | Product List | Glossary On
Versions: 1 2 3 4 5 6 7 8 9 10 11 12 13 14 15 16 17 18 19 20 21 22 23 24 25 26 27 28 29 30 31 32 33 34 35 36 37 38 39 40 41 42 43 44 45 46 47 48 49 50
000
ASUS43 KDMX 231106
RWRIA

WEATHER ROUNDUP FOR IOWA
NATIONAL WEATHER SERVICE DES MOINES IA
600 AM CDT SUN APR 23 2017

NOTE: "FAIR" INDICATES FEW OR NO CLOUDS BELOW 12,000 FEET WITH NO
SIGNIFICANT WEATHER AND/OR OBSTRUCTIONS TO VISIBILITY.

* - THESE STATIONS ARE NOT NWS STATIONS...THUS NOT UNDER NWS
QUALITY CONTROL.  THEY ALSO DO NOT REPORT WEATHER SUCH
AS PRECIPITATION OR FOG.

IAZ001>003-012>014-020>022-031>034-043>046-231200-
   NORTHWEST IOWA

CITY           SKY/WX    TMP DP  RH WIND       PRES   REMARKS
CARROLL *      PTCLDY    41  34  75 W5        30.15S
CHEROKEE *     CLEAR     33  33 100 CALM      30.14F
DENISON *      CLEAR     36  32  87 CALM      30.17S
LE MARS *      CLEAR     39  34  81 S6        30.13F WCI  35
ORANGE CITY *  CLEAR     43  34  70 S5        30.12F
SHELDON *      CLEAR     43  34  70 SW7       30.10F
SIOUX CITY     CLEAR     37  33  85 E5        30.15F WCI  33
SPENCER        CLEAR     39  32  76 SW7       30.12F WCI  34
STORM LAKE *   CLEAR     45  32  61 W6        30.14F
$$

IAZ055>058-069>071-079>083-090>094-231200-
   SOUTHWEST IOWA

CITY           SKY/WX    TMP DP  RH WIND       PRES   REMARKS
ATLANTIC *     CLEAR     34  32  93 CALM      30.16F
AUDUBON *      CLEAR     30  27  86 CALM      30.17S
CLARINDA *     CLEAR     32  32 100 CALM      30.20S
COUNCIL BLFS * CLEAR     45  37  76 CALM      30.16S
CRESTON *      CLEAR     43  30  61 W6        30.18S
HARLAN  *        N/A     36  36 100 CALM      30.19F
LAMONI         CLEAR     44  30  57 W6        30.17R
RED OAK *      CLEAR     36  34  93 CALM      30.17F
SHENANDOAH *   CLEAR     34  34 100 CALM      30.18S
$$

IAZ047>049-059>061-072>074-084-231200-
   CENTRAL IOWA

CITY           SKY/WX    TMP DP  RH WIND       PRES   REMARKS
AMES           CLEAR     40  33  76 CALM      30.14F
ANKENY *       CLEAR     34  32  93 CALM      30.17S
BOONE *        CLEAR     45  32  61 SW6       30.14S
CHARITON *     CLEAR     43  28  56 W7        30.16S
DES MOINES     CLEAR     45  30  55 SW3       30.15F
GRINNELL*      CLEAR     42  28  58 W5        30.16F
KNOXVILLE *    CLEAR     39  32  75 W6        30.15S WCI  35
MARSHALLTOWN   CLEAR     38  34  85 S3        30.14S
NEWTON *       CLEAR     45  28  53 W6        30.15S
PELLA *        CLEAR     41  39  92 W3        30.16F
PERRY *          N/A     40  32  74 CALM      30.16S
$$

IAZ004>006-015-016-023>025-035-036-231200-
   NORTH CENTRAL IOWA

CITY           SKY/WX    TMP DP  RH WIND       PRES   REMARKS
ALGONA *       CLEAR     41  36  81 SW7       30.13S
CLARION *      CLEAR     39  34  81 S3        30.14S
ESTHERVILLE    CLEAR     39  34  82 SW8       30.10F WCI  33
FORT DODGE *   CLEAR     39  30  70 CALM      30.15R
MASON CITY     CLEAR     45  33  63 SW7       30.14S
FOREST CITY *    N/A     36  32  87 CALM      30.13S
WEBSTER CITY * CLEAR     39  32  75 SW7       30.12S WCI  34
IOWA FALLS *     N/A     42  32  68 SW8       30.15S
$$

IAZ007>011-017>019-026>030-037>042-050>054-066-231200-
   NORTHEAST IOWA

CITY           SKY/WX    TMP DP  RH WIND       PRES   REMARKS
CEDAR RAPIDS   CLEAR     36  30  79 CALM      30.14S
CHARLES CITY * CLEAR     45  32  61 W7        30.14S
CLINTON *      CLEAR     39  33  79 CALM      30.15F
DECORAH *      PTCLDY    45  32  61 CALM      30.11F
DUBUQUE        CLEAR     39  30  70 S5        30.14S
MONTICELLO *   CLEAR     34  32  93 CALM      30.14S
OELWEIN *      CLEAR     43  34  70 CALM      30.15R
WATERLOO       CLEAR     35  32  88 CALM      30.14R
$$

IAZ064-065-067-068-078-231200-
   EAST CENTRAL IOWA

CITY           SKY/WX    TMP DP  RH WIND       PRES   REMARKS
DAVENPORT        N/A     34  29  82 CALM      30.15F
IOWA CITY      CLEAR     40  34  79 CALM      30.17S
MT. PLEASANT * CLEAR     39  33  78 CALM      30.16S
MUSCATINE *    CLEAR     37  32  81 CALM      30.16F
QUAD CITIES    CLEAR     36  32  85 CALM      30.15S
$$

IAZ062-063-075>077-085>089-095>099-231200-
   SOUTHEAST IOWA

CITY           SKY/WX    TMP DP  RH WIND       PRES   REMARKS
BURLINGTON     CLEAR     37  34  89 N5        30.15R WCI  33
FAIRFIELD *    CLEAR     36  28  75 CALM      30.15S
FORT MADISON * CLEAR     37  34  87 CALM      30.16R
KEOKUK *       CLEAR     43  34  70 N6        30.15R
OSKALOOSA *      N/A     39  30  70 NW5       30.16F
CENTERVILLE *    N/A     37  32  81 CALM      30.18R
OTTUMWA        CLEAR     40  32  73 NW5       30.15S
WASHINGTON *   CLEAR     36  32  87 NW5       30.16F WCI  32
$$

ABBREVIATIONS USED IN REMARKS
   TC - TEMPERATURES IN CELSIUS
  WCI - WIND CHILL INDEX
   HX - HEAT INDEX
  VSB - VISIBILITY
$$





USA.gov is the U.S. government's official web portal to all federal, state and local government web resources and services.